Location: Bottenau
(48.5138°N, 8.0462°E)
Time: 05:01:29
(UTC+00:00)

SL-16 R/B - Pass Details

Date: 18 April 2021
Orbit: 840 x 849 km, 71.0° (Epoch: 09 May)

Event Time Altitude Azimuth Distance (km) Brightness Sun altitude
Rises 20:27:40 0° 334° (NNW) 3,425 6.7 -18.4°
Reaches altitude 10° 20:30:15 10° 341° (NNW) 2,485 5.6 -18.7°
Maximum altitude 20:35:42 45° 54° (NE) 1,153 2.8 -19.4°
Enters shadow 20:37:52 31° 103° (ESE) 1,444 3.0 -19.6°
